Showing default

KUIPER-00618, 69294

Orbit data source: Space-Track

KUIPER-00618, 69294 is a payload satellite owned by Kuiper Systems (US) in LEO that was launched on Fri, 29 May 2026 UTC via an ATLAS V 551 launch vehicle from the Air Force Eastern Test Range (AFETR). Payload-class satellites include a variety of spacecraft equipped with specific instruments for various scientific and technological missions. These include communications satellites like Starlink; space stations such as the ISS; scientific satellites like the Hubble; Earth observation satellites from companies like Planet Labs, Umbra, and HawkEye 360; GPS; miniature CubeSats for education and research; and military/defense satellites.

Loading next visibility...
Identifier
69294, 2026-118AD
Orbit
LEO
Country
Flag of USUS
Related business
Manufacturer
Kuiper Systems
Mission
Operational spacecraft
Bus & Motor
KUIPER, Unknown motor
Mass
~490 kg wet, ~490 kg dry
Launch date (UTC)
2026-05-29 (3 weeks ago)
Launch vehicle
ATLAS V 551
Launch site
Air Force Eastern Test Range (AFETR)
Object type
Payload
Rocket body
Debris
Shape & HBR
Unknown
Radar Cross Section
Large (>1 m²)

Expand to show TLE details & history
Last TLE update: 12 hours ago

TLE from 12 hours ago
0 KUIPER-00618
1 69294U 26118AD  26171.36311310  .00023239  00000-0  60597-3 0  9992
2 69294  51.8728  37.7160 0001548 102.5975 257.5185 15.38729386  4474
Epoch: 2026-06-20T08:42Z
TLE epoch observation values (Epoch: 2026-06-20T08:42:52.971Z)
Latitude
-0.00008°
Longitude
-1.58359°
Altitude
450.857 km
Speed
7.643 km/s
True Right ascension
02h 30m 51s
True Declination
0° 00' 00"
Sunlit
Object was in daylight at epoch
Visualization orbit readout
Latitude
Unknown
Longitude
Unknown
Altitude
Unknown
Speed
Unknown
Apparent Right ascension
Unknown
Apparent Declination
Unknown
Sunlit
N/A
Visualization observer readout
Local Sidereal Time
07:12:12
Azimuth
Unknown
Elevation
Unknown
Doppler factor
Unknown
Orbital elements
Apogee altitude
451.39 km
Perigee altitude
449.276 km
Semi-major axis
6,828.47 km
Eccentricity
0.00015
Inclination
51.8728°
RAAN
37.716°
Arg. of periapsis
102.5975°
True anomaly
257.50118°
Mean anomaly
257.5185°
Eccentric anomaly
257.50984°
Mean motion
3.84643 °/min
Orbital period
93.59 mins
BSTAR
0.00060597
Loading maneuver chart data...
Computing Atmospheric mass density...
Loading historical data...
Loading historical data...
Loading historical data...
Loading historical data...
Loading historical data...
Loading historical data...
Loading historical data...

Documentation

Showing up to 5 results
|